Flag for Germany Weather past 2 weeks in Prenzlau, Brandenburg, Germany

Now
34 °F

Light rain. Fog.


Feels Like: 26 °F
Forecast: 32 / 37 °F
Wind: 10 mph from South

Location: Szczecin Airport

Current Time: Jan 26, 2015 at 9:41:17 PM

Latest Report: Jan 26, 2015 at 9:00 PM


Visibility: 3 mi

Pressure: 29.83 "Hg

Humidity: 93%

Dew point: 32 °F

Location of PrenzlauLocation

Historic Weather in Prenzlau — Graph

°F

Prenzlau temperature yesterday

Maximum temperature yesterday: 36 °F (at 12:30 PM)
Minimum temperature yesterday: 30 °F (at 12:00 AM)
Average temperature yesterday: 33 °F

Past Weeks' High & Low Weather Summary

 TemperatureHumidityPressure
High52 °F (Jan 13, 6:30 PM)100% (Jan 13, 12:00 AM)30.27 "Hg (Jan 13, 12:00 AM)
Low23 °F (Jan 18, 4:30 AM)62% (Jan 13, 6:30 PM)29.53 "Hg (Jan 15, 9:00 PM)
Average36 °F88%29.93 "Hg
* Reported Jan 11 8:00 PM — Jan 26 8:30 PM, Prenzlau, Weather by CustomWeather, © 2014

Note: Actual official high and low records may vary slightly from our data, if they occured in-between our weather recording intervals... More about our weather records

Advertising

Prenzlau weather history for previous 24 hours

 ConditionsComfort  
Time TempWeatherWind HumidityBarometerVisibility
8:30 PM
Jan 26
36 °FLight rain. Passing clouds.13 mph87%29.86 "Hg4 mi
8:00 PM36 °FLight rain. Partly cloudy.13 mph87%29.86 "Hg5 mi
7:00 PM36 °FPassing clouds.12 mph87%29.89 "HgN/A
6:00 PM36 °FPartly cloudy.13 mph87%29.92 "HgN/A
5:30 PM36 °FPassing clouds.12 mph87%29.95 "HgN/A
5:00 PM36 °FPassing clouds.9 mph87%29.98 "HgN/A
4:30 PM36 °FPartly sunny.10 mph87%29.98 "HgN/A
4:00 PM36 °FPartly sunny.12 mph87%29.98 "HgN/A
3:30 PM36 °FPartly sunny.12 mph87%30.01 "HgN/A
3:00 PM36 °FPartly sunny.13 mph87%30.01 "HgN/A
2:30 PM36 °FPartly sunny.10 mph87%30.04 "HgN/A
2:00 PM36 °FPartly sunny.9 mph87%30.07 "HgN/A
1:30 PM36 °FBroken clouds.10 mph87%30.07 "HgN/A
1:00 PM36 °FPartly sunny.10 mph87%30.09 "Hg5 mi
12:30 PM34 °FBroken clouds.10 mph93%30.09 "Hg5 mi
12:00 PM34 °FSnow flurries. Broken clouds.8 mph93%30.12 "Hg5 mi
11:30 AM34 °FBroken clouds.8 mph93%30.12 "Hg5 mi
11:00 AM34 °FBroken clouds.12 mph87%30.15 "Hg5 mi
10:30 AM34 °FPartly sunny.9 mph93%30.15 "Hg5 mi
10:00 AM32 °FBroken clouds.6 mph93%30.18 "Hg5 mi
9:30 AM32 °FBroken clouds.7 mph93%30.18 "Hg5 mi
9:00 AM32 °FPartly sunny.7 mph93%30.18 "Hg5 mi
8:30 AM32 °FSnow flurries. Broken clouds.7 mph93%30.21 "Hg4 mi
8:00 AM32 °FBroken clouds.8 mph93%30.21 "Hg5 mi
7:30 AM32 °FPartly cloudy.6 mph93%30.21 "Hg5 mi
7:00 AM32 °FPartly cloudy.5 mph93%30.21 "Hg5 mi
6:30 AM32 °FPartly cloudy.3 mph93%30.21 "Hg4 mi
6:00 AM32 °FPassing clouds.No wind93%30.21 "Hg4 mi
5:30 AM32 °FIce fog.2 mph100%30.21 "Hg3 mi
5:00 AM32 °FLight rain. Ice fog.2 mph100%30.21 "Hg2 mi
4:30 AM32 °FPartly cloudy.3 mph93%30.24 "Hg4 mi
4:00 AM32 °FPassing clouds.2 mph100%30.24 "Hg4 mi
3:30 AM32 °FIce fog.3 mph100%30.24 "Hg3 mi
3:00 AM32 °FIce fog.No wind100%30.24 "Hg2 mi
2:30 AM32 °FIce fog.2 mph100%30.24 "Hg2 mi
2:00 AM32 °FIce fog.1 mph100%30.24 "Hg2 mi
1:30 AM32 °FIce fog.2 mph100%30.24 "Hg2 mi
1:00 AM34 °FFog.No wind93%30.24 "Hg2 mi
12:30 AM34 °FFog.3 mph93%30.27 "Hg2 mi
12:00 AM34 °FFog.3 mph93%30.24 "Hg2 mi
11:30 PM
Jan 25
34 °FFog.2 mph93%30.27 "Hg2 mi
11:00 PM34 °FFog.5 mph93%30.27 "Hg2 mi
10:30 PM34 °FFog.5 mph93%30.27 "Hg2 mi
10:00 PM34 °FFog.5 mph93%30.27 "Hg2 mi
9:30 PM34 °FFog.3 mph93%30.27 "Hg3 mi
9:00 PM34 °FPassing clouds.2 mph93%30.24 "Hg4 mi
Weather by CustomWeather, © 2014

See weather overviewHow to use our weather pages